Regional Weather Roundup
Issued by NWS

Home | Current Version | Previous Version | Text Only | Print | Product List | Glossary On
Versions: 1 2 3 4 5 6 7 8 9 10 11 12 13 14 15 16 17 18 19 20 21 22 23 24 25 26 27 28 29 30 31 32 33 34 35 36 37 38 39 40 41 42 43 44 45 46 47 48 49 50
813
ASUS44 KFWD 221910
RWRTX
NORTH TEXAS HOURLY WEATHER ROUNDUP
NATIONAL WEATHER SERVICE FORT WORTH TX
200 PM CDT SUN APR 22 2018

NOTE: "FAIR" INDICATES FEW OR NO CLOUDS BELOW 12,000 FEET WITH NO
SIGNIFICANT WEATHER AND/OR OBSTRUCTIONS TO VISIBILITY.

TXZ118-119-222000-
DALLAS/FORT WORTH METROPLEX

CITY           SKY/WX    TMP DP  RH WIND       PRES   REMARKS
DFW AIRPORT    PTSUNNY   63  43  48 NW17G25   30.06F
DALLAS LOVE    FAIR      66  45  46 NW16G22   30.07F
FTW MEACHAM    PTSUNNY   66  46  48 NW16G28   30.09F
DAL-EXECUTIVE  PTSUNNY   65  45  48 NW20G26   30.06F
FTW-ALLIANCE   PTSUNNY   65  46  50 NW16G22   30.08F
FTW-NAS-JRB    PTSUNNY   66  43  43 NW17G25   30.10F
FTW-SPINKS     PTSUNNY   64  46  52 W17G25    30.10F
ARLINGTON      PTSUNNY   63  45  51 NW17G24   30.08F
GRAND PRAIRIE  MOSUNNY   63  43  48 NW14G25   30.10F
ADDISON        PTSUNNY   63  45  51 W13G20    30.07F
MESQUITE       PTSUNNY   64  43  45 W20G26    30.07F
LANCASTER      FAIR      63  46  52 NW16G26   30.07F
$$

TXZ091>094-102>105-117-120-121-131>134-222000-
NORTH CENTRAL TEXAS

CITY           SKY/WX    TMP DP  RH WIND       PRES   REMARKS
SHRMAN/DENISON CLOUDY    59  46  62 NW13G21   30.07F
GAINESVILLE    CLOUDY    62  44  51 NW15G24   30.09F
BOWIE          PTSUNNY   61  43  52 NW20      30.09F
BRIDGEPORT     CLOUDY    60  44  55 W10G17    30.13F
DECATUR        PTSUNNY   60  43  52 NW8G20    30.09F
DENTON         PTSUNNY   63  47  55 NW16G25   30.07F
MCKINNEY       PTSUNNY   63  46  54 NW17      30.06F
BONHAM         CLOUDY    57  44  62 NW13      30.05F
GREENVILLE     PTSUNNY   64  46  52 NW17      30.05F
ROCKWALL       PTSUNNY   64  47  54 MISG      30.06F
TERRELL        FAIR      64  47  53 W17G25    30.06F
WAXAHACHIE     FAIR      64  47  53 NW17G25   30.09F
CLEBURNE       FAIR      64  45  48 NW20G25   30.11F
GRANBURY       PTSUNNY   64  44  48 NW18G24   30.12F
$$

TXZ083>090-098>101-113>116-127>130-139>142-154-155-222000-
WESTERN NORTH TEXAS

CITY           SKY/WX    TMP DP  RH WIND       PRES   REMARKS
WICHITA FALLS  FAIR      64  43  46 N20       30.10F
WF-KICKAPOO    PTSUNNY   61  41  48 NW12G26   30.13F
VERNON         FAIR      66  40  38 N15G24    30.13F
ABILENE        FAIR      65  41  41 N15G24    30.13F
ABILENE-DYESS  FAIR      65  38  36 N8G22     30.13F
GRAHAM           N/A     63  43  48 NW9G22    30.12F
BRECKENRIDGE   FAIR      66  38  35 N9G18     30.12F
CISCO          FAIR      64  39  39 NW15G22   30.13F
EASTLAND       FAIR      64  41  43 NW13G21   30.12F
RANGER         FAIR      63  42  46 NW13G20   30.12F
MINERAL WELLS  CLOUDY    62  44  51 NW16      30.11F
STEPHENVILLE   FAIR      64  42  44 N14G22    30.14F
COMANCHE       FAIR      65  42  42 NW16G23   30.12F
BROWNWOOD      FAIR      66  39  37 NW8G21    30.12F
COLEMAN        FAIR      67  40  36 N12       30.13F
BRADY          FAIR      66  41  39 N15       30.12F
$$

TXZ143>147-156>162-174-175-222000-
CENTRAL TEXAS

CITY           SKY/WX    TMP DP  RH WIND       PRES   REMARKS
WACO           FAIR      69  46  43 N17G23    30.08F
WACO-TSTC      MOSUNNY   66  46  48 NW20G28   30.09F
WACO-MCGREGOR  FAIR      66  47  50 NW12      30.09F
HILLSBORO      FAIR      65  47  51 NW21G26   30.08F
CORSICANA      FAIR      66  48  52 NW17      30.07F
MEXIA          FAIR      66  47  50 NW17G23   30.07F
HEARNE         FAIR      67  49  53 NW15      30.09F
CAMERON        FAIR      68  49  49 NW10G22   30.08F
TEMPLE         FAIR      67  47  48 N17G23    30.09F
KILLEEN        MOSUNNY   68  41  37 NW14G26   30.09F
KILLEEN-SKYLRK FAIR      69  46  43 N15       30.09F
FORT HOOD      FAIR      68  45  43 NW14G22   30.05F
GATESVILLE     FAIR      66  43  42 NW13G20   30.11F
HAMILTON       FAIR      66  43  42 NW20G25   30.11F
LAMPASAS       FAIR      67  44  42 N12       30.09F
$$

TXZ095>097-106>112-122>126-135>138-148>153-164>167-222000-
EAST TEXAS

CITY           SKY/WX    TMP DP  RH WIND       PRES   REMARKS
PARIS          CLOUDY    57  47  69 NW14G21   30.02F
SULPHUR SPRNGS CLOUDY    59  47  63 NW15      30.06S
MOUNT PLEASANT PTSUNNY   60  47  62 W14G23    30.03F
GILMER         CLOUDY    60  49  65 W12       30.01F
MINEOLA        CLOUDY    61  46  59 W9G17     30.03F
TYLER          PTSUNNY   63  48  58 NW15G21   30.02F
LONGVIEW       PTSUNNY   64  53  67 W15       30.00F
MARSHALL       CLOUDY    55  48  76 NW15      30.04R
ATHENS         FAIR      63  45  51 NW10G20   30.03F
PALESTINE      FAIR      66  51  59 W14       30.05F
CENTER         CLOUDY    58  51  75 NW10      30.02S
NACOGDOCHES      N/A     62  53  72 NW10      30.02F
LUFKIN         FAIR      64  52  64 NW12      30.02F
$$

SUPPLEMENTAL OBSERVATIONS (NWS FORT WORTH AREA)

CITY           SKY/WX    TMP DP  RH WIND       PRES   REMARKS
CADDO GRASSLND   N/A     59  46  63 W9G18       N/A
LBJ GRASSLAND    N/A     61  41  48 W12G21      N/A
POSSUM KINGDOM   N/A     64  43  45 NW12        N/A
GRANBURY         N/A     63  43  48 NW20G25     N/A
MCGREGOR         N/A     68  46  45 NW9G18      N/A
TEMPLE           N/A     68  46  45 NW14G23     N/A
PALESTINE        N/A     68  50  52 W6G17       N/A
$$

SUPPLEMENTAL OBSERVATIONS (NWS NORMAN AREA)

CITY           SKY/WX    TMP DP  RH WIND       PRES   REMARKS
GOODLETT         N/A     63  37  38 NW13G22   30.15F
ODELL            N/A     65  42  42 N17       30.14F
CROWELL          N/A     65  40  39 NW13      30.15F
KNOX CITY        N/A     68  36  30 N10G17    30.14F
SEYMOUR          N/A     64  40  41 NW13G21   30.14F
MILLERS CREEK    N/A     66  39  37 NW12G22     N/A
$$

SUPPLEMENTAL OBSERVATIONS (NWS SAN ANGELO AREA)

CITY           SKY/WX    TMP DP  RH WIND       PRES   REMARKS
WEINERT          N/A     66  38  35 N15       30.14F
HASKELL          N/A     67  35  30 N16       30.13F
THROCKMORTON     N/A     66  44  45 NW10      30.14F
STAMFORD         N/A     66  39  36 N13       30.14F
CLYDE            N/A     64  41  42 NW17      30.15F
HAMBY            N/A     66  39  37 NW9G18      N/A
IVIE RESERVOIR   N/A     70  41  35 NW12        N/A
COLORADO BEND    N/A     70  41  35 N8G23       N/A
$$

SUPPLEMENTAL OBSERVATIONS (NWS SHREVEPORT AREA)

CITY           SKY/WX    TMP DP  RH WIND       PRES   REMARKS
TEXARKANA        N/A     57  48  72 W9          N/A
LINDEN           N/A     59  48  67 NW6G14      N/A
LUFKIN           N/A     64  52  63 MISG        N/A
N SABINE NF      N/A     64  54  68 MISG        N/A
$$

SUPPLEMENTAL OBSERVATIONS ARE A COLLECTION OF AUTOMATED INSTRUMENTS
THAT ARE MAINTAINED BY A VARIETY OF FEDERAL AND STATE AGENCIES.
CERTAIN ELEMENTS...SUCH AS HUMIDITY VALUES AND SUSTAINED WIND
SPEEDS...MAY BE APPROXIMATED.





USA.gov is the U.S. government's official web portal to all federal, state and local government web resources and services.